• In Netherlands
  • List of Countries
  • For 7 days
  • Water Temperature
  • Satellite Maps
  • Weather Map
  • Weather Widgets
  • user-avatar
    Login

    Hourly Weather Pomorie

    Today, 21 January, Saturday

    Time Temperature Precipitation Wind Pressure Humidity
    00:00 -9°C° 0 mm 2 mps 776 mmHg 82%
    01:00 -9°C° 0 mm 2 mps 776 mmHg 81%
    02:00 -9°C° 0 mm 2 mps 775 mmHg 79%
    03:00 -9°C° 0 mm 2 mps 775 mmHg 78%
    04:00 -9°C° 0 mm 2 mps 775 mmHg 76%
    05:00 -9°C° 0 mm 2 mps 774 mmHg 75%
    06:00 -8°C° 0 mm 2 mps 774 mmHg 74%
    07:00 -8°C° 0 mm 2 mps 774 mmHg 73%
    08:00 -8°C° 0 mm 2 mps 774 mmHg 72%
    09:00 -6°C° 0 mm 2 mps 774 mmHg 71%
    10:00 -3°C° 0 mm 2 mps 774 mmHg 70%
    11:00 -1°C° 0 mm 2 mps 774 mmHg 70%
    12:00 -1°C° 0 mm 2 mps 774 mmHg 72%
    13:00 +1°C° 0 mm 2 mps 774 mmHg 75%
    14:00 +2°C° 0 mm 2 mps 773 mmHg 78%
    15:00 -1°C° 0 mm 2 mps 773 mmHg 80%
    16:00 -3°C° 0 mm 2 mps 773 mmHg 81%
    17:00 -4°C° 0 mm 2 mps 773 mmHg 83%
    18:00 -4°C° 0 mm 2 mps 773 mmHg 82%
    19:00 -5°C° 0 mm 2 mps 774 mmHg 80%
    20:00 -5°C° 0 mm 2 mps 774 mmHg 79%
    21:00 -5°C° 0 mm 2 mps 774 mmHg 78%
    22:00 -4°C° 0 mm 2 mps 774 mmHg 78%
    23:00 -4°C° 0 mm 2 mps 775 mmHg 77%

    Tomorrow, 22 January, Sunday

    Time Temperature Precipitation Wind Pressure Humidity
    00:00 -4°C° 0 mm 2 mps 775 mmHg 78%
    01:00 -4°C° 0 mm 3 mps 775 mmHg 78%
    02:00 -4°C° 0 mm 3 mps 775 mmHg 78%
    03:00 -4°C° 0 mm 3 mps 775 mmHg 79%
    04:00 -4°C° 0 mm 3 mps 775 mmHg 80%
    05:00 -4°C° 0 mm 3 mps 775 mmHg 81%
    06:00 -4°C° 0 mm 3 mps 775 mmHg 83%
    07:00 -4°C° 0 mm 3 mps 776 mmHg 85%
    08:00 -4°C° 0 mm 4 mps 776 mmHg 86%
    09:00 -2°C° 0 mm 3 mps 776 mmHg 87%
    10:00 -1°C° 0 mm 3 mps 776 mmHg 88%
    11:00 +1°C° 0 mm 3 mps 777 mmHg 90%
    12:00 +1°C° 0 mm 3 mps 776 mmHg 91%
    13:00 +1°C° 0 mm 3 mps 776 mmHg 92%
    14:00 0°C° 0 mm 4 mps 776 mmHg 93%
    15:00 0°C° 0 mm 4 mps 776 mmHg 94%
    16:00 -1°C° 0 mm 4 mps 776 mmHg 94%
    17:00 -1°C° 0 mm 4 mps 776 mmHg 95%
    18:00 -1°C° 0 mm 4 mps 776 mmHg 95%
    19:00 -1°C° 0 mm 4 mps 776 mmHg 95%
    20:00 -1°C° 0 mm 4 mps 776 mmHg 95%
    21:00 -1°C° 0 mm 4 mps 776 mmHg 95%
    22:00 -1°C° 0 mm 4 mps 776 mmHg 95%
    23:00 -1°C° 0 mm 4 mps 776 mmHg 95%

    Day after tomorrow, 23 January, Monday

    Time Temperature Precipitation Wind Pressure Humidity
    00:00 -2°C° 0 mm 4 mps 776 mmHg 95%
    01:00 -1°C° 0 mm 3 mps 775 mmHg 95%
    02:00 -2°C° 0 mm 3 mps 775 mmHg 95%
    03:00 -2°C° 0 mm 3 mps 775 mmHg 95%
    04:00 -2°C° 0 mm 3 mps 775 mmHg 94%
    05:00 -2°C° 0 mm 3 mps 774 mmHg 94%
    06:00 -1°C° 0 mm 3 mps 774 mmHg 94%
    07:00 -1°C° 0 mm 3 mps 774 mmHg 94%
    08:00 +1°C° 0 mm 2 mps 774 mmHg 94%
    09:00 +1°C° 0 mm 2 mps 774 mmHg 94%
    10:00 +2°C° 0 mm 2 mps 774 mmHg 94%
    11:00 +3°C° 0 mm 2 mps 774 mmHg 93%
    12:00 +3°C° 0 mm 2 mps 773 mmHg 93%
    13:00 +3°C° 0 mm 2 mps 772 mmHg 93%
    14:00 +3°C° 0 mm 2 mps 772 mmHg 94%
    15:00 +3°C° 0 mm 2 mps 771 mmHg 94%
    16:00 +3°C° 0 mm 1 mps 771 mmHg 94%
    17:00 +3°C° 0 mm 1 mps 771 mmHg 95%
    18:00 +2°C° 0 mm 1 mps 771 mmHg 95%
    19:00 +1°C° 0 mm 1 mps 770 mmHg 94%
    20:00 +1°C° 0 mm 1 mps 770 mmHg 94%
    21:00 +1°C° 0 mm 1 mps 770 mmHg 94%
    22:00 0°C° 0 mm 1 mps 769 mmHg 94%
    23:00 0°C° 0 mm 1 mps 769 mmHg 94%

    24 January, Tuesday

    Time Temperature Precipitation Wind Pressure Humidity
    00:00 0°C° 0 mm 1 mps 769 mmHg 94%
    01:00 0°C° 0 mm 1 mps 768 mmHg 94%
    02:00 -1°C° 0 mm 1 mps 768 mmHg 94%
    03:00 -1°C° 0 mm 1 mps 767 mmHg 94%
    04:00 -1°C° 0 mm 1 mps 767 mmHg 94%
    05:00 -1°C° 0 mm 1 mps 766 mmHg 94%
    06:00 0°C° 0 mm 1 mps 766 mmHg 93%
    07:00 0°C° 0 mm 1 mps 766 mmHg 93%
    08:00 0°C° 0 mm 1 mps 766 mmHg 92%
    09:00 +2°C° 0 mm 1 mps 766 mmHg 91%
    10:00 +3°C° 0 mm 1 mps 766 mmHg 89%
    11:00 +3°C° 0 mm 0 mps 765 mmHg 87%
    12:00 +5°C° 0.1 mm 1 mps 765 mmHg 87%
    13:00 +5°C° 0.1 mm 1 mps 765 mmHg 88%
    14:00 +5°C° 0.1 mm 1 mps 764 mmHg 88%
    15:00 +4°C° 0.3 mm 1 mps 764 mmHg 90%
    16:00 +4°C° 0.3 mm 1 mps 764 mmHg 92%
    17:00 +3°C° 0.3 mm 1 mps 764 mmHg 94%
    18:00 +3°C° 0.2 mm 1 mps 764 mmHg 94%
    19:00 +2°C° 0.2 mm 2 mps 764 mmHg 94%
    20:00 +1°C° 0.2 mm 3 mps 764 mmHg 94%
    21:00 0°C° 0.3 mm 3 mps 765 mmHg 93%
    22:00 0°C° 0.3 mm 3 mps 765 mmHg 93%
    23:00 -1°C° 0.3 mm 4 mps 765 mmHg 93%

    25 January, Wednesday

    Time Temperature Precipitation Wind Pressure Humidity
    00:00 -1°C° 0.3 mm 4 mps 765 mmHg 93%
    01:00 -2°C° 0.3 mm 5 mps 765 mmHg 92%
    02:00 -3°C° 0.3 mm 6 mps 765 mmHg 92%
    03:00 -3°C° 0.2 mm 6 mps 765 mmHg 92%
    04:00 -3°C° 0.2 mm 6 mps 766 mmHg 92%
    05:00 -4°C° 0.2 mm 6 mps 766 mmHg 91%
    06:00 -4°C° 0.1 mm 7 mps 766 mmHg 91%
    07:00 -4°C° 0.1 mm 7 mps 767 mmHg 90%
    08:00 -4°C° 0.1 mm 7 mps 767 mmHg 89%
    09:00 -4°C° 0 mm 7 mps 768 mmHg 88%
    10:00 -3°C° 0 mm 7 mps 768 mmHg 86%
    11:00 -4°C° 0 mm 8 mps 769 mmHg 85%
    12:00 -4°C° 0 mm 8 mps 768 mmHg 84%
    13:00 -2°C° 0 mm 8 mps 768 mmHg 83%
    14:00 -2°C° 0 mm 8 mps 768 mmHg 82%
    15:00 -4°C° 0 mm 8 mps 769 mmHg 83%
    16:00 -3°C° 0 mm 7 mps 769 mmHg 84%
    17:00 -3°C° 0 mm 7 mps 769 mmHg 84%
    18:00 -4°C° 0 mm 7 mps 770 mmHg 85%
    19:00 -6°C° 0 mm 7 mps 770 mmHg 85%
    20:00 -6°C° 0 mm 7 mps 771 mmHg 85%
    21:00 -6°C° 0 mm 6 mps 771 mmHg 85%
    22:00 -6°C° 0 mm 6 mps 771 mmHg 85%
    23:00 -6°C° 0 mm 6 mps 771 mmHg 85%

    26 January, Thursday

    Time Temperature Precipitation Wind Pressure Humidity
    00:00 -6°C° 0 mm 6 mps 771 mmHg 85%
    01:00 -6°C° 0 mm 6 mps 771 mmHg 85%
    02:00 -6°C° 0 mm 6 mps 772 mmHg 84%
    03:00 -6°C° 0 mm 6 mps 772 mmHg 85%
    04:00 -8°C° 0 mm 6 mps 772 mmHg 85%
    05:00 -8°C° 0 mm 6 mps 772 mmHg 85%
    06:00 -8°C° 0 mm 6 mps 772 mmHg 85%
    07:00 -8°C° 0 mm 6 mps 772 mmHg 85%
    08:00 -8°C° 0 mm 6 mps 773 mmHg 85%
    09:00 -8°C° 0 mm 6 mps 773 mmHg 83%
    10:00 -8°C° 0 mm 7 mps 773 mmHg 80%
    11:00 -7°C° 0 mm 7 mps 774 mmHg 78%
    12:00 -7°C° 0 mm 7 mps 773 mmHg 77%
    13:00 -7°C° 0 mm 7 mps 773 mmHg 76%
    14:00 -7°C° 0 mm 7 mps 773 mmHg 75%
    15:00 -7°C° 0 mm 7 mps 773 mmHg 76%
    16:00 -8°C° 0 mm 7 mps 774 mmHg 77%
    17:00 -8°C° 0 mm 7 mps 774 mmHg 79%
    18:00 -8°C° 0 mm 7 mps 774 mmHg 79%
    19:00 -8°C° 0 mm 7 mps 775 mmHg 80%
    20:00 -9°C° 0 mm 7 mps 775 mmHg 80%
    21:00 -9°C° 0 mm 7 mps 775 mmHg 81%
    22:00 -9°C° 0 mm 7 mps 776 mmHg 82%
    23:00 -11°C° 0 mm 7 mps 776 mmHg 83%
    Show more